Location: Clatteringshaws Loch
(55.0508°N, 4.2860°W)
Time: 13:16:41
(UTC+01:00)

Amateur Radio Satellites - All Passes

Search period start: 27 May 2016 12:46
Search period end: 28 May 2016 12:46
Location: Clatteringshaws Loch, 55.0508°N, 4.2860°W

Satellite Date Start Highest point End Downlink Frequencies (MHz)
Time Altitude Azimuth
QB50P2 27 May 12:47:14 12:50:41 24° 268° (W) 12:54:10 145.880/145.840
POLYITAN 1 27 May 12:49:44 12:53:09 23° 268° (W) 12:56:36 437.675
ITAMSAT 1 27 May 13:03:44 13:07:00 17° 48° (NE) 13:10:16 435.822/435.867
SPROUT 27 May 13:04:14 13:08:00 29° 94° (E) 13:11:44 437.525
NANOSAT C BR1 27 May 13:04:31 13:07:32 19° 270° (W) 13:10:33 145.865
FUNcube-1 27 May 13:12:25 13:13:07 10° 311° (NW) 13:13:50 145.935
AISAT 27 May 13:15:36 13:20:04 78° 105° (ESE) 13:24:29 437.250
PCSat 27 May 13:17:22 13:22:22 36° 332° (NNW) 13:27:23 145.827
DELFI C3 27 May 13:21:01 13:22:28 12° 309° (NW) 13:23:56 145.870
BEESAT 2 27 May 13:24:47 13:28:39 50° 129° (SE) 13:32:33 435.950
Cosmos 2491 27 May 13:25:56 13:32:41 23° 46° (NE) 13:39:21 435.465 / 435.565
UKube-1 27 May 13:26:42 13:31:03 68° 104° (ESE) 13:35:21 .
TISAT 1 27 May 13:31:03 13:33:57 18° 89° (E) 13:36:51 437.305
AO-85 27 May 13:41:49 13:46:44 49° 31° (NNE) 13:51:13 145.980
O/OREOS (USA 219) 27 May 13:44:12 13:46:37 14° 336° (NNW) 13:49:00 437.305
ESTCUBE 1 27 May 13:51:44 13:56:02 42° 295° (WNW) 14:00:19 437.505/2401.250
AIST 2 27 May 13:54:51 13:56:22 12° 111° (ESE) 13:57:52 435.215
DANDE 27 May 13:58:04 14:04:06 71° 289° (WNW) 14:11:52 436.750
Oscar 19 27 May 14:00:15 14:05:24 61° 258° (WSW) 14:10:35 437.125/150
BEESAT 3 27 May 14:00:39 14:04:35 63° 322° (NW) 14:08:33 437.485
AO-7 27 May 14:03:55 14:11:23 39° 47° (NE) 14:18:53 29.400- 29.500
JAS-2 27 May 14:05:57 14:13:09 46° 266° (W) 14:20:42 435.910
50 SAT 27 May 14:06:08 14:09:24 29° 296° (WNW) 14:12:40 437.505
BUGSAT 1 27 May 14:06:22 14:07:14 11° 276° (W) 14:08:06 437.445
CUSAT 1 27 May 14:09:35 14:16:10 42° 300° (WNW) 14:23:42 437.405
CUBEBUG 1 27 May 14:10:43 14:14:47 38° 296° (WNW) 14:18:49 437.445
DX 1 27 May 14:12:37 14:16:47 43° 295° (WNW) 14:20:54 434.975-435.025
VELOX 1 27 May 14:16:14 14:20:19 36° 297° (WNW) 14:24:22 145.980
Gurwin Techsat 1B 27 May 14:18:26 14:23:46 87° 251° (WSW) 14:29:08 435.225
HO-68 27 May 14:22:03 14:22:54 10° 346° (NNW) 14:23:45 435.675
BEESAT 27 May 14:26:43 14:29:39 16° 87° (E) 14:32:34 436.000
SPROUT 27 May 14:40:04 14:44:06 42° 294° (WNW) 14:48:06 437.525
ITAMSAT 1 27 May 14:40:31 14:45:39 69° 69° (ENE) 14:50:50 435.822/435.867
AISAT 27 May 14:52:52 14:56:05 20° 305° (NW) 14:59:17 437.250
BEESAT 2 27 May 15:02:53 15:06:39 38° 330° (NNW) 15:10:26 435.950
PCSat 27 May 15:02:55 15:07:15 23° 357° (N) 15:11:35 145.827
UKube-1 27 May 15:03:25 15:06:43 22° 304° (WNW) 15:10:00 .
TISAT 1 27 May 15:05:54 15:10:05 67° 289° (WNW) 15:14:13 437.305
AO-85 27 May 15:22:36 15:27:15 46° 235° (SW) 15:31:30 145.980
Cosmos 2491 27 May 15:22:42 15:31:30 68° 73° (ENE) 15:40:12 435.465 / 435.565
AIST 2 27 May 15:29:58 15:34:03 63° 132° (SE) 15:38:11 435.215
SWISSCUBE 27 May 15:33:32 15:38:17 56° 101° (ESE) 15:43:00 437.505
YUBILEINY 27 May 15:33:49 15:40:43 28° 77° (ENE) 15:47:39 435.215
ITUPSAT 1 27 May 15:39:26 15:44:12 57° 102° (ESE) 15:48:56 437.325
BEESAT 3 27 May 15:39:41 15:42:57 24° 344° (NNW) 15:46:13 437.485
DANDE 27 May 15:43:25 15:48:37 23° 315° (NW) 15:54:39 436.750
MOZHAYETS 4 27 May 15:43:56 15:44:27 10° 81° (E) 15:44:59
Oscar 19 27 May 15:43:59 15:45:50 12° 278° (W) 15:47:41 437.125/150
AO-7 27 May 15:55:21 16:03:40 78° 251° (WSW) 16:12:04 29.400- 29.500
CUSAT 1 27 May 15:56:13 16:00:46 17° 326° (NW) 16:05:32 437.405
JAS-2 27 May 15:57:37 16:00:19 12° 289° (WNW) 16:03:03 435.910
Gurwin Techsat 1B 27 May 16:00:58 16:04:31 18° 274° (W) 16:08:05 435.225
HORYU 2 27 May 16:01:25 16:05:22 33° 62° (ENE) 16:09:20 437.375
BEESAT 27 May 16:03:20 16:08:10 88° 105° (ESE) 16:12:58 436.000
HO-68 27 May 16:06:53 16:07:33 10° 13° (NNE) 16:08:13 435.675
STARS 27 May 16:08:25 16:09:39 11° 84° (E) 16:10:53 437.465
BRITE-PL 27 May 16:09:07 16:11:56 14° 45° (NE) 16:14:44 437.365/2234.400
CUTE-I 27 May 16:15:26 16:18:06 14° 43° (NE) 16:20:47 437.470
ITAMSAT 1 27 May 16:21:28 16:25:37 24° 269° (W) 16:29:49 435.822/435.867
RS-15 27 May 16:26:33 16:33:50 20° 95° (E) 16:41:20 29.354- 29.394
GOMX 1 27 May 16:37:03 16:38:55 12° 44° (NE) 16:40:46 467.674
BEESAT 2 27 May 16:42:21 16:45:26 21° 353° (N) 16:48:32 435.950
TISAT 1 27 May 16:43:05 16:45:00 13° 309° (NW) 16:46:56 437.305
PCSat 27 May 16:47:24 16:52:14 31° 23° (NNE) 16:57:02 145.827
Cosmos 2504 27 May 16:52:33 16:57:50 22° 74° (ENE) 17:03:20 435.465 / 435.565
NOAA 18 27 May 17:01:18 17:06:02 31° 56° (NE) 17:10:46 137.9125
NOAA 15 27 May 17:02:48 17:07:31 33° 58° (ENE) 17:12:15 137.62
KKS-1 27 May 17:05:42 17:10:06 57° 101° (ESE) 17:14:28 437.445
Cubesat XI-IV 27 May 17:06:33 17:10:58 27° 55° (NE) 17:15:23 437.490
O/OREOS (USA 219) 27 May 17:06:54 17:09:34 15° 27° (NNE) 17:12:14 437.305
AIST 2 27 May 17:08:59 17:12:49 35° 333° (NNW) 17:16:41 435.215
SWISSCUBE 27 May 17:11:45 17:15:51 28° 302° (WNW) 17:19:56 437.505
ITUPSAT 1 27 May 17:17:42 17:21:48 28° 302° (WNW) 17:25:53 437.325
MOZHAYETS 4 27 May 17:18:01 17:22:37 61° 101° (ESE) 17:27:13
BEESAT 3 27 May 17:18:45 17:21:48 21° 8° (N) 17:24:51 437.485
Cosmos 2491 27 May 17:20:03 17:27:54 38° 277° (W) 17:35:40 435.465 / 435.565
LilacSat-2 27 May 17:22:53 17:25:47 21° 60° (ENE) 17:28:40 437.200
DOVE 4 27 May 17:27:02 17:29:30 14° 49° (NE) 17:31:54 437.250
YUBILEINY 27 May 17:27:47 17:36:30 89° 281° (W) 17:45:17 435.215
DANDE 27 May 17:33:12 17:34:55 11° 343° (NNW) 17:36:41 436.750
HORYU 2 27 May 17:37:42 17:41:53 41° 262° (W) 17:46:05 437.375
BEESAT 27 May 17:41:58 17:45:24 20° 307° (NW) 17:48:50 436.000
STARS 27 May 17:42:29 17:46:53 70° 103° (ESE) 17:51:14 437.465
BRITE-PL 27 May 17:43:48 17:49:16 49° 65° (ENE) 17:54:41 437.365/2234.400
HO-68 27 May 17:47:42 17:52:45 21° 39° (NE) 17:57:48 435.675
AO-7 27 May 17:51:39 17:57:52 23° 274° (W) 18:04:09 29.400- 29.500
CUTE-I 27 May 17:51:57 17:57:06 52° 65° (ENE) 18:02:16 437.470
GOMX 1 27 May 18:10:43 18:15:51 43° 65° (ENE) 18:20:50 467.674
BEESAT 2 27 May 18:21:05 18:24:26 24° 17° (NNE) 18:27:46 435.950
PCSat 27 May 18:30:56 18:36:25 79° 47° (NE) 18:41:51 145.827
CUTE 1.7 + AOD 2 27 May 18:32:09 18:34:00 13° 51° (NE) 18:35:50 437.475
AUBIESAT-1 27 May 18:32:16 18:35:16 21° 53° (NE) 18:38:07 437.475
RS-15 27 May 18:32:24 18:43:33 61° 121° (ESE) 18:55:19 29.354- 29.394
M-CUBED/EXP-1 PRIME 27 May 18:38:13 18:41:36 27° 56° (NE) 18:44:48 437.505
NOAA 18 27 May 18:41:01 18:46:25 62° 257° (WSW) 18:51:52 137.9125
NOAA 15 27 May 18:41:55 18:47:07 55° 259° (W) 18:52:23 137.62
CUBESAT XI-V 27 May 18:42:20 18:47:00 55° 100° (E) 18:51:38 437.345
Cosmos 2504 27 May 18:42:41 18:49:59 83° 99° (E) 18:57:50 435.465 / 435.565
KKS-1 27 May 18:42:46 18:46:25 25° 302° (WNW) 18:50:02 437.445
Cubesat XI-IV 27 May 18:45:22 18:50:40 70° 256° (WSW) 18:56:00 437.490
O/OREOS (USA 219) 27 May 18:45:43 18:50:07 48° 51° (NE) 18:54:27 437.305
AIST 2 27 May 18:49:06 18:52:21 21° 357° (N) 18:55:34 435.215
COMPASS 1 27 May 18:55:17 18:56:49 12° 50° (NE) 18:58:22 437.405
MOZHAYETS 4 27 May 18:55:43 18:59:30 25° 301° (WNW) 19:03:16
LilacSat-2 27 May 18:56:07 18:59:50 52° 260° (W) 19:03:34 437.200
BEESAT 3 27 May 18:56:39 19:00:26 39° 31° (NNE) 19:04:10 437.485
AAUSAT CUBESAT 2 27 May 18:58:46 18:59:44 11° 49° (NE) 19:00:42 437.432
DOVE 4 27 May 19:01:16 19:06:20 57° 69° (ENE) 19:11:09 437.250
STARS 27 May 19:19:33 19:22:51 21° 304° (NW) 19:26:09 437.465
UWE-3 27 May 19:22:28 19:23:33 11° 49° (NE) 19:24:39 435.000/436.395/437.385
BRITE-PL 27 May 19:22:32 19:27:51 39° 266° (W) 19:33:10 437.365/2234.400
YUBILEINY 27 May 19:27:13 19:34:37 30° 307° (NW) 19:42:05 435.215
CUSAT 1 27 May 19:30:26 19:33:15 12° 22° (NNE) 19:36:02 437.405
HO-68 27 May 19:32:15 19:39:14 60° 62° (ENE) 19:46:16 435.675
CUTE-I 27 May 19:32:39 19:37:24 33° 266° (W) 19:42:12 437.470
CINEMA 3 27 May 19:34:42 19:39:02 40° 66° (ENE) 19:43:14 145.822/145.860
CANX-2 27 May 19:37:50 19:41:48 42° 66° (ENE) 19:45:49 2200.000
SEEDS 27 May 19:41:22 19:45:06 32° 63° (ENE) 19:48:52 437.485
GOMX 1 27 May 19:48:48 19:53:58 41° 264° (W) 19:59:00 467.674
STRAND 1 27 May 19:53:39 19:58:07 29° 93° (E) 20:02:34 437.568
BEESAT 2 27 May 19:58:55 20:02:56 66° 39° (NE) 20:06:55 435.950
CUTE 1.7 + AOD 2 27 May 20:04:54 20:09:04 65° 72° (ENE) 20:13:18 437.475
AUBIESAT-1 27 May 20:05:36 20:09:33 59° 251° (WSW) 20:13:15 437.475
Oscar 11 27 May 20:09:02 20:12:12 20° 57° (ENE) 20:15:25 145.826/435.025
M-CUBED/EXP-1 PRIME 27 May 20:12:11 20:16:06 43° 254° (WSW) 20:19:43 437.505
PCSat 27 May 20:14:54 20:19:20 26° 248° (WSW) 20:23:46 145.827
CUBESAT XI-V 27 May 20:20:08 20:24:09 28° 301° (WNW) 20:28:08 437.345
ZACube-1 27 May 20:22:37 20:25:54 23° 59° (ENE) 20:29:09 437.345
O/OREOS (USA 219) 27 May 20:25:24 20:29:22 31° 252° (WSW) 20:33:17 437.305
NOAA 18 27 May 20:25:57 20:28:14 13° 278° (W) 20:30:32 137.9125
CUBEBUG 2 27 May 20:26:07 20:30:11 42° 67° (ENE) 20:34:11 437.445
NOAA 15 27 May 20:27:08 20:28:09 10° 280° (W) 20:29:10 137.62
COMPASS 1 27 May 20:27:30 20:31:35 61° 71° (ENE) 20:35:44 437.405
AIST 2 27 May 20:28:20 20:31:58 28° 20° (NNE) 20:35:35 435.215
Cubesat XI-IV 27 May 20:29:05 20:31:46 14° 277° (W) 20:34:28 437.490
PRISM 27 May 20:29:11 20:30:51 12° 85° (E) 20:32:32 437.425
AAUSAT CUBESAT 2 27 May 20:30:19 20:34:21 54° 69° (ENE) 20:38:27 437.432
AIST 1 27 May 20:33:59 20:35:48 12° 80° (E) 20:37:37
BEESAT 3 27 May 20:34:24 20:38:14 47° 232° (SW) 20:42:02 437.485
HUMSAT D 27 May 20:35:35 20:36:29 11° 49° (NE) 20:37:24 437.325/437.525
Cosmos 2504 27 May 20:38:05 20:44:26 30° 305° (NW) 20:51:09 435.465 / 435.565
DOVE 4 27 May 20:39:51 20:44:18 28° 268° (W) 20:48:35 437.250
RS-15 27 May 20:44:27 20:56:07 69° 330° (NNW) 21:08:25 29.354- 29.394
UWE-3 27 May 20:55:02 20:59:13 55° 69° (ENE) 21:03:19 435.000/436.395/437.385
FUNcube-1 27 May 20:59:58 21:03:55 42° 67° (ENE) 21:07:51 145.935
DELFI C3 27 May 21:02:48 21:06:13 28° 63° (ENE) 21:09:40 145.870
DANDE 27 May 21:03:12 21:08:51 19° 39° (NE) 21:14:32 436.750
CUSAT 1 27 May 21:11:56 21:18:34 27° 49° (NE) 21:24:41 437.405
CINEMA 3 27 May 21:12:02 21:16:17 34° 264° (W) 21:20:23 145.822/145.860
CANX-2 27 May 21:14:09 21:17:49 28° 266° (W) 21:21:32 2200.000
SEEDS 27 May 21:16:53 21:20:47 37° 263° (W) 21:24:44 437.485
HO-68 27 May 21:20:41 21:27:19 40° 264° (W) 21:34:00 435.675
GONETS M04 27 May 21:23:23 21:30:44 32° 79° (E) 21:38:03
Cosmos 2499 27 May 21:28:20 21:33:12 19° 71° (ENE) 21:38:15 435.465 / 435.565
YUBILEINY 27 May 21:32:15 21:35:21 12° 338° (NNW) 21:38:27 435.215
STRAND 1 27 May 21:32:35 21:37:38 57° 293° (WNW) 21:42:41 437.568
BEESAT 2 27 May 21:37:13 21:40:29 24° 240° (WSW) 21:43:43 435.950
CUTE 1.7 + AOD 2 27 May 21:42:20 21:45:22 19° 271° (W) 21:48:25 437.475
Oscar 11 27 May 21:43:39 21:47:57 70° 257° (WSW) 21:52:16 145.826/435.025
ESTCUBE 1 27 May 21:47:07 21:49:34 15° 50° (NE) 21:52:01 437.505/2401.250
ZACube-1 27 May 21:57:45 22:01:55 58° 259° (W) 22:06:03 437.345
PRISM 27 May 22:02:41 22:06:55 80° 106° (ESE) 22:11:06 437.425
CUBEBUG 2 27 May 22:03:11 22:06:58 29° 266° (W) 22:10:42 437.445
CUBEBUG 1 27 May 22:03:21 22:05:42 14° 51° (NE) 22:08:03 437.445
COMPASS 1 27 May 22:04:30 22:07:33 20° 270° (W) 22:10:39 437.405
DX 1 27 May 22:05:23 22:07:28 13° 49° (NE) 22:09:34 434.975-435.025
AIST 2 27 May 22:06:49 22:11:00 82° 42° (NE) 22:15:09 435.215
AAUSAT CUBESAT 2 27 May 22:06:56 22:10:10 22° 269° (W) 22:13:27 437.432
HUMSAT D 27 May 22:07:18 22:11:18 55° 69° (ENE) 22:15:18 437.325/437.525
AIST 1 27 May 22:08:13 22:12:38 79° 99° (E) 22:17:04
VELOX 1 27 May 22:09:31 22:12:13 16° 52° (NE) 22:14:54 145.980
SPROUT 27 May 22:32:02 22:33:26 11° 49° (NE) 22:34:49 437.525
UWE-3 27 May 22:32:41 22:36:01 22° 269° (W) 22:39:18 435.000/436.395/437.385
FUNcube-1 27 May 22:36:43 22:40:20 28° 266° (W) 22:43:57 145.935
DELFI C3 27 May 22:37:14 22:40:59 40° 262° (W) 22:44:47 145.870
ISS 27 May 22:39:27 22:41:19 14° 146° (SE) 22:43:11 145.825
Cosmos 2504 27 May 22:39:27 22:41:16 11° 335° (NNW) 22:43:08 435.465 / 435.565
AISAT 27 May 22:44:08 22:47:57 28° 60° (ENE) 22:51:46 437.250
DANDE 27 May 22:45:48 22:53:53 49° 63° (ENE) 23:01:44 436.750
UKube-1 27 May 22:53:03 22:56:33 24° 58° (ENE) 23:00:03 .
CUSAT 1 27 May 22:54:00 23:02:08 77° 73° (ENE) 23:09:10 437.405
RS-15 27 May 22:59:04 23:10:45 54° 2° (N) 23:22:51 29.354- 29.394
UNISAT 6 27 May 23:00:04 23:03:38 25° 93° (E) 23:07:13 437.425
TIGRISAT 27 May 23:07:36 23:11:17 27° 94° (E) 23:14:58 435.000
STRAND 1 27 May 23:13:07 23:15:51 15° 314° (NW) 23:18:36 437.568
50 SAT 27 May 23:17:08 23:20:37 45° 68° (ENE) 23:24:10 437.505
Cosmos 2499 27 May 23:17:28 23:24:48 72° 96° (E) 23:32:45 435.465 / 435.565
GONETS M04 27 May 23:17:55 23:26:45 81° 283° (WNW) 23:35:34
ESTCUBE 1 27 May 23:21:07 23:25:37 68° 70° (ENE) 23:30:09 437.505/2401.250
Oscar 11 27 May 23:23:46 23:24:56 11° 277° (W) 23:26:06 145.826/435.025
YUBILEINY 27 May 23:36:13 23:37:45 10° 14° (NNE) 23:39:16 435.215
CUBEBUG 1 27 May 23:36:50 23:41:15 69° 71° (ENE) 23:45:42 437.445
DX 1 27 May 23:38:33 23:42:53 63° 69° (ENE) 23:47:15 434.975-435.025
PRISM 27 May 23:38:53 23:41:45 18° 305° (NW) 23:44:37 437.425
ANTELSAT 27 May 23:40:57 23:45:11 55° 101° (ESE) 23:49:27 437.575/2403.000
VELOX 1 27 May 23:43:33 23:48:01 78° 72° (ENE) 23:52:31 145.980
HUMSAT D 27 May 23:44:10 23:47:16 21° 269° (W) 23:50:23 437.325/437.525
DUCHIFAT 1 27 May 23:44:18 23:46:33 14° 87° (E) 23:48:48 145.980
AIST 2 27 May 23:45:59 23:49:02 20° 243° (WSW) 23:52:04 435.215
AIST 1 27 May 23:47:48 23:50:51 18° 301° (WNW) 23:53:54
BUGSAT 1 28 May 00:03:53 00:04:48 11° 84° (E) 00:05:43 437.445
SPROUT 28 May 00:04:20 00:08:32 55° 69° (ENE) 00:12:45 437.525
ISS 28 May 00:14:06 00:17:09 36° 165° (SSE) 00:20:11 145.825
SO-50 28 May 00:19:16 00:21:34 13° 110° (ESE) 00:23:51 436.795
AISAT 28 May 00:19:53 00:24:15 50° 260° (W) 00:28:38 437.250
POPSAT HIP 1 28 May 00:21:22 00:25:09 31° 95° (E) 00:28:53 437.405
QB50P1 28 May 00:21:46 00:25:33 32° 95° (E) 00:29:20 145.935-145.965
QB50P2 28 May 00:23:59 00:27:53 35° 96° (E) 00:31:45 145.880/145.840
POLYITAN 1 28 May 00:26:27 00:30:21 35° 97° (E) 00:34:13 437.675
UKube-1 28 May 00:28:02 00:32:19 58° 258° (WSW) 00:36:38 .
DANDE 28 May 00:28:51 00:37:04 60° 266° (W) 00:44:54 436.750
TISAT 1 28 May 00:29:03 00:32:53 34° 64° (ENE) 00:36:43 437.305
UNISAT 6 28 May 00:36:29 00:40:37 50° 293° (WNW) 00:44:48 437.425
CUSAT 1 28 May 00:36:45 00:43:36 33° 277° (W) 00:49:43 437.405
NANOSAT C BR1 28 May 00:40:06 00:44:09 44° 99° (E) 00:48:10 145.865
TIGRISAT 28 May 00:44:06 00:48:11 45° 293° (WNW) 00:52:17 435.000
50 SAT 28 May 00:51:48 00:54:36 21° 268° (W) 00:57:27 437.505
ESTCUBE 1 28 May 00:59:32 01:02:53 20° 270° (W) 01:06:17 437.505/2401.250
JAS-2 28 May 01:07:59 01:14:30 30° 86° (E) 01:20:30 435.910
SWISSCUBE 28 May 01:10:19 01:14:17 27° 58° (ENE) 01:18:17 437.505
Cosmos 2499 28 May 01:11:59 01:18:42 35° 302° (WNW) 01:25:56 435.465 / 435.565
RS-15 28 May 01:13:02 01:25:15 74° 34° (NE) 01:37:40 29.354- 29.394
CUBEBUG 1 28 May 01:14:48 01:18:01 19° 271° (W) 01:21:15 437.445
DX 1 28 May 01:16:10 01:19:30 21° 269° (W) 01:22:50 434.975-435.025
ITUPSAT 1 28 May 01:16:26 01:20:26 27° 58° (ENE) 01:24:28 437.325
GONETS M04 28 May 01:17:55 01:25:08 27° 309° (NW) 01:32:22
ANTELSAT 28 May 01:18:12 01:21:40 24° 301° (WNW) 01:25:09 437.575/2403.000
DUCHIFAT 1 28 May 01:18:41 01:22:53 87° 291° (WNW) 01:27:04 145.980
VELOX 1 28 May 01:22:04 01:25:04 17° 272° (W) 01:28:04 145.980
YUBILEINY 28 May 01:32:14 01:39:01 24° 47° (NE) 01:45:47 435.215
BUGSAT 1 28 May 01:36:53 01:40:58 75° 104° (ESE) 01:45:00 437.445
BEESAT 28 May 01:39:27 01:43:52 40° 63° (ENE) 01:48:20 436.000
SPROUT 28 May 01:41:24 01:44:49 23° 269° (W) 01:48:14 437.525
ISS 28 May 01:50:08 01:53:16 44° 186° (S) 01:56:25 145.825
SO-50 28 May 01:56:21 02:01:11 60° 130° (SE) 02:06:00 436.795
POPSAT HIP 1 28 May 01:57:07 02:01:01 38° 295° (WNW) 02:04:55 437.405
QB50P1 28 May 01:57:31 02:01:25 37° 295° (WNW) 02:05:18 145.935-145.965
QB50P2 28 May 01:59:52 02:03:43 35° 296° (WNW) 02:07:33 145.880/145.840
POLYITAN 1 28 May 02:02:21 02:06:10 34° 296° (WNW) 02:09:58 437.675
TISAT 1 28 May 02:04:38 02:08:33 36° 263° (W) 02:12:28 437.305
Oscar 19 28 May 02:04:38 02:09:08 29° 93° (E) 02:13:34 437.125/150
DANDE 28 May 02:13:11 02:18:22 18° 287° (WNW) 02:23:27 436.750
UNISAT 6 28 May 02:15:46 02:16:27 10° 313° (NW) 02:17:08 437.425
NANOSAT C BR1 28 May 02:16:09 02:19:46 28° 299° (WNW) 02:23:20 145.865
Gurwin Techsat 1B 28 May 02:27:48 02:31:56 22° 89° (E) 02:36:04 435.225
Cosmos 2504 28 May 02:32:22 02:37:44 18° 42° (NE) 02:43:17 435.465 / 435.565
KKS-1 28 May 02:35:16 02:38:46 23° 57° (ENE) 02:42:15 437.445
Cosmos 2491 28 May 02:41:12 02:46:09 17° 67° (ENE) 02:51:06 435.465 / 435.565
SWISSCUBE 28 May 02:47:07 02:51:49 59° 258° (WSW) 02:56:34 437.505
ITAMSAT 1 28 May 02:47:20 02:50:06 14° 84° (E) 02:52:51 435.822/435.867
MOZHAYETS 4 28 May 02:50:56 02:54:33 24° 57° (ENE) 02:58:11
JAS-2 28 May 02:52:38 03:00:24 81° 290° (WNW) 03:07:25 435.910
ITUPSAT 1 28 May 02:53:19 02:58:01 58° 258° (WSW) 03:02:46 437.325
DUCHIFAT 1 28 May 02:55:29 02:58:01 16° 306° (NW) 03:00:31 145.980
STARS 28 May 03:10:35 03:14:12 26° 59° (ENE) 03:17:50 437.465
Cosmos 2499 28 May 03:11:53 03:15:03 13° 331° (NNW) 03:18:18 435.465 / 435.565
BUGSAT 1 28 May 03:13:08 03:15:55 18° 304° (NW) 03:18:40 437.445
BEESAT 28 May 03:17:18 03:21:43 37° 263° (W) 03:26:10 436.000
GONETS M04 28 May 03:23:31 03:26:06 11° 341° (NNW) 03:28:41
RS-15 28 May 03:25:53 03:37:37 56° 242° (WSW) 03:49:24 29.354- 29.394
ISS 28 May 03:26:36 03:29:18 24° 205° (SSW) 03:31:59 145.825
YUBILEINY 28 May 03:28:57 03:37:43 70° 73° (ENE) 03:46:29 435.215
SO-50 28 May 03:37:12 03:41:55 44° 332° (NNW) 03:46:34 436.795
Oscar 19 28 May 03:43:42 03:48:48 57° 293° (WNW) 03:53:49 437.125/150
AO-7 28 May 03:49:13 03:55:45 24° 87° (E) 04:02:15 29.400- 29.500
Gurwin Techsat 1B 28 May 04:07:09 04:12:29 76° 290° (WNW) 04:17:49 435.225
KKS-1 28 May 04:10:32 04:14:59 66° 256° (WSW) 04:19:27 437.445
CUBESAT XI-V 28 May 04:16:32 04:20:11 23° 56° (ENE) 04:23:50 437.345
ITAMSAT 1 28 May 04:25:17 04:30:31 73° 105° (ESE) 04:35:45 435.822/435.867
Cosmos 2504 28 May 04:25:18 04:33:20 53° 68° (ENE) 04:41:50 435.465 / 435.565
MOZHAYETS 4 28 May 04:26:50 04:31:22 65° 258° (WSW) 04:35:57
SWISSCUBE 28 May 04:29:59 04:30:40 10° 278° (W) 04:31:21 437.505
Cosmos 2491 28 May 04:32:29 04:41:04 59° 91° (E) 04:49:40 435.465 / 435.565
ITUPSAT 1 28 May 04:36:33 04:36:56 10° 279° (W) 04:37:18 437.325
JAS-2 28 May 04:38:10 04:44:25 28° 313° (NW) 04:50:18 435.910
STARS 28 May 04:45:59 04:50:20 55° 258° (WSW) 04:54:41 437.465
SO-50 28 May 05:19:17 05:23:27 27° 356° (N) 05:27:32 436.795
HORYU 2 28 May 05:21:25 05:24:59 23° 92° (E) 05:28:32 437.375
Oscar 19 28 May 05:24:23 05:27:09 15° 314° (NW) 05:29:55 437.125/150
GONETS M04 28 May 05:26:17 05:28:33 11° 17° (NNE) 05:30:48
YUBILEINY 28 May 05:26:17 05:34:02 37° 278° (W) 05:41:47 435.215
STRAND 1 28 May 05:39:34 05:43:06 19° 50° (NE) 05:46:38 437.568
RS-15 28 May 05:40:12 05:47:10 18° 268° (W) 05:54:10 29.354- 29.394
AO-7 28 May 05:41:25 05:49:51 81° 111° (ESE) 05:58:15 29.400- 29.500
AO-85 28 May 05:45:08 05:47:47 14° 109° (ESE) 05:50:23 145.980
Gurwin Techsat 1B 28 May 05:48:04 05:51:41 19° 311° (NW) 05:55:19 435.225
KKS-1 28 May 05:51:21 05:52:27 11° 277° (W) 05:53:34 437.445
CUBESAT XI-V 28 May 05:52:28 05:57:09 72° 257° (WSW) 06:01:54 437.345
CUTE-I 28 May 06:03:33 06:05:25 12° 81° (E) 06:07:16 437.470
ITAMSAT 1 28 May 06:05:20 06:09:36 26° 305° (NW) 06:13:51 435.822/435.867
MOZHAYETS 4 28 May 06:08:19 06:09:29 11° 278° (W) 06:10:41
Cosmos 2504 28 May 06:18:56 06:26:48 50° 271° (W) 06:35:06 435.465 / 435.565
LilacSat-2 28 May 06:24:06 06:25:20 11° 85° (E) 06:26:35 437.200
JAS-2 28 May 06:24:20 06:27:02 12° 337° (NNW) 06:29:42 435.910
Cosmos 2491 28 May 06:29:53 06:38:17 46° 296° (WNW) 06:46:44 435.465 / 435.565
NOAA 15 28 May 06:49:41 06:54:30 34° 95° (E) 06:59:17 137.62
Cubesat XI-IV 28 May 06:55:25 07:00:01 28° 92° (E) 07:04:36 437.490
NOAA 18 28 May 06:55:41 07:00:35 32° 95° (E) 07:05:27 137.9125
HORYU 2 28 May 06:57:32 07:01:53 57° 292° (WNW) 07:06:14 437.375
SO-50 28 May 07:00:42 07:05:08 34° 20° (NNE) 07:09:26 436.795
Cosmos 2499 28 May 07:06:06 07:11:09 17° 38° (NE) 07:16:19 435.465 / 435.565
STRAND 1 28 May 07:16:29 07:21:36 81° 70° (ENE) 07:26:45 437.568
BRITE-PL 28 May 07:20:02 07:25:13 50° 98° (E) 07:29:58 437.365/2234.400
AO-85 28 May 07:22:04 07:27:23 57° 129° (SE) 07:32:31 145.980
GONETS M04 28 May 07:22:32 07:29:37 26° 49° (NE) 07:36:39
PRISM 28 May 07:24:33 07:27:55 24° 59° (ENE) 07:31:18 437.425
CUBESAT XI-V 28 May 07:33:26 07:35:25 12° 277° (W) 07:37:27 437.345
AO-7 28 May 07:34:37 07:42:03 38° 314° (NW) 07:49:30 29.400- 29.500
CUTE-I 28 May 07:41:19 07:46:38 59° 102° (ESE) 07:51:56 437.470
GOMX 1 28 May 07:43:31 07:48:06 40° 96° (E) 07:52:21 467.674
LilacSat-2 28 May 07:56:29 08:00:18 87° 108° (ESE) 08:04:05 437.200
AIST 1 28 May 08:07:52 08:12:05 44° 71° (ENE) 08:16:14
Cosmos 2504 28 May 08:14:38 08:18:16 14° 294° (WNW) 08:21:57 435.465 / 435.565
NOAA 15 28 May 08:29:21 08:34:30 51° 295° (WNW) 08:39:37 137.62
DOVE 4 28 May 08:30:51 08:35:17 52° 99° (E) 08:39:28 437.250
Cosmos 2491 28 May 08:32:41 08:38:02 17° 325° (NW) 08:43:24 435.465 / 435.565
UNISAT 6 28 May 08:32:56 08:33:55 11° 48° (NE) 08:34:52 437.425
Cubesat XI-IV 28 May 08:35:12 08:40:29 61° 293° (WNW) 08:45:46 437.490
HORYU 2 28 May 08:35:48 08:37:36 12° 312° (NW) 08:39:23 437.375
NOAA 18 28 May 08:36:11 08:41:33 56° 295° (WNW) 08:46:53 137.9125
HO-68 28 May 08:39:39 08:45:57 32° 92° (E) 08:52:13 435.675
TIGRISAT 28 May 08:39:51 08:41:17 11° 49° (NE) 08:42:42 435.000
SO-50 28 May 08:41:20 08:46:11 89° 47° (NE) 08:50:50 436.795
CANX-2 28 May 08:51:17 08:55:09 32° 95° (E) 08:59:00 2200.000
SEEDS 28 May 08:53:31 08:56:58 23° 91° (E) 09:00:24 437.485
STRAND 1 28 May 08:57:42 09:01:24 20° 272° (W) 09:05:10 437.568
Cosmos 2499 28 May 08:58:46 09:06:50 46° 65° (ENE) 09:15:14 435.465 / 435.565
BRITE-PL 28 May 08:58:46 09:03:32 34° 300° (WNW) 09:07:58 437.365/2234.400
PRISM 28 May 08:58:52 09:02:58 54° 258° (WSW) 09:07:06 437.425
CINEMA 3 28 May 08:59:04 09:02:55 33° 95° (E) 09:06:41 145.822/145.860
AO-85 28 May 09:02:52 09:08:06 48° 330° (NNW) 09:13:04 145.980
O/OREOS (USA 219) 28 May 09:07:56 09:09:51 13° 98° (E) 09:11:46 437.305
ANTELSAT 28 May 09:11:32 09:14:40 20° 57° (ENE) 09:17:47 437.575/2403.000
AUBIESAT-1 28 May 09:12:16 09:15:04 24° 102° (ESE) 09:17:50 437.475
CUTE 1.7 + AOD 2 28 May 09:18:19 09:22:30 48° 99° (E) 09:26:40 437.475
M-CUBED/EXP-1 PRIME 28 May 09:19:08 09:22:13 34° 105° (ESE) 09:25:13 437.505
GONETS M04 28 May 09:19:19 09:28:06 78° 76° (ENE) 09:36:48
GOMX 1 28 May 09:21:45 09:26:11 36° 298° (WNW) 09:30:21 467.674
CUTE-I 28 May 09:21:47 09:26:27 31° 303° (WNW) 09:31:06 437.470
PCSat 28 May 09:22:24 09:25:14 14° 104° (ESE) 09:28:03 145.827
Oscar 11 28 May 09:24:49 09:27:11 14° 86° (E) 09:29:32 145.826/435.025
AO-7 28 May 09:27:36 09:32:41 18° 339° (NNW) 09:37:47 29.400- 29.500
LilacSat-2 28 May 09:32:00 09:34:04 14° 305° (NW) 09:36:10 437.200
COMPASS 1 28 May 09:38:37 09:42:41 43° 98° (E) 09:46:43 437.405
ZACube-1 28 May 09:39:27 09:42:11 17° 88° (E) 09:44:54 437.345
AAUSAT CUBESAT 2 28 May 09:40:49 09:44:46 38° 97° (E) 09:48:41 437.432
AIST 1 28 May 09:45:49 09:49:31 27° 272° (W) 09:53:09
CUBEBUG 2 28 May 09:45:59 09:49:47 34° 96° (E) 09:53:36 437.445
JAS-2 28 May 09:46:57 09:50:41 14° 28° (NNE) 09:54:26 435.910
POPSAT HIP 1 28 May 09:48:00 09:49:33 12° 49° (NE) 09:51:06 437.405
QB50P1 28 May 09:48:16 09:49:54 12° 50° (NE) 09:51:31 145.935-145.965
QB50P2 28 May 09:50:23 09:52:17 13° 51° (NE) 09:54:13 145.880/145.840
POLYITAN 1 28 May 09:52:47 09:54:45 13° 51° (NE) 09:56:42 437.675
NANOSAT C BR1 28 May 10:05:26 10:07:54 15° 53° (NE) 10:10:23 145.865
UNISAT 6 28 May 10:05:33 10:09:45 51° 68° (ENE) 10:13:56 437.425
DELFI C3 28 May 10:08:12 10:10:57 17° 89° (E) 10:13:42 145.870
DOVE 4 28 May 10:09:00 10:12:45 26° 301° (WNW) 10:16:20 437.250
NOAA 15 28 May 10:10:36 10:13:13 14° 317° (NW) 10:15:48 137.62
TIGRISAT 28 May 10:12:55 10:17:10 57° 68° (ENE) 10:21:22 435.000
UWE-3 28 May 10:13:37 10:17:36 44° 98° (E) 10:21:39 435.000/436.395/437.385
Cubesat XI-IV 28 May 10:16:29 10:19:38 16° 314° (NW) 10:22:48 437.490
FUNcube-1 28 May 10:16:39 10:20:25 32° 95° (E) 10:24:14 145.935
NOAA 18 28 May 10:18:07 10:21:12 16° 317° (NW) 10:24:17 137.9125
SO-50 28 May 10:22:34 10:26:06 21° 244° (WSW) 10:29:33 436.795
CUSAT 1 28 May 10:25:44 10:29:18 14° 69° (ENE) 10:33:05 437.405
CANX-2 28 May 10:27:06 10:31:06 39° 294° (WNW) 10:35:06 2200.000
HO-68 28 May 10:27:09 10:34:19 74° 294° (WNW) 10:41:28 435.675
SEEDS 28 May 10:28:49 10:32:58 52° 291° (WNW) 10:37:07 437.485
CINEMA 3 28 May 10:36:16 10:40:07 35° 296° (WNW) 10:43:54 145.822/145.860
DUCHIFAT 1 28 May 10:42:25 10:45:59 27° 61° (ENE) 10:49:32 145.980
O/OREOS (USA 219) 28 May 10:43:55 10:48:27 72° 118° (ESE) 10:52:59 437.305
AO-85 28 May 10:45:06 10:49:38 28° 353° (N) 10:53:55 145.980
AUBIESAT-1 28 May 10:46:38 10:49:43 33° 302° (WNW) 10:52:44 437.475
ANTELSAT 28 May 10:46:40 10:50:59 72° 256° (WSW) 10:55:17 437.575/2403.000
Cosmos 2499 28 May 10:52:03 11:00:17 59° 268° (W) 11:08:54 435.465 / 435.565
M-CUBED/EXP-1 PRIME 28 May 10:53:57 10:56:45 25° 305° (NW) 10:59:29 437.505
CUTE 1.7 + AOD 2 28 May 10:54:33 10:58:10 27° 299° (WNW) 11:01:46 437.475
BUGSAT 1 28 May 10:59:05 11:02:18 22° 58° (ENE) 11:05:29 437.445
Oscar 11 28 May 10:59:36 11:03:59 89° 92° (E) 11:08:21 145.826/435.025
PCSat 28 May 11:02:17 11:07:39 64° 125° (SE) 11:13:03 145.827
COMPASS 1 28 May 11:14:28 11:18:08 29° 298° (WNW) 11:21:46 437.405
ZACube-1 28 May 11:14:48 11:18:59 73° 288° (WNW) 11:23:12 437.345
AAUSAT CUBESAT 2 28 May 11:16:28 11:20:14 32° 296° (WNW) 11:23:58 437.432
GONETS M04 28 May 11:16:48 11:24:12 33° 280° (W) 11:31:34
AO-7 28 May 11:18:13 11:22:24 15° 7° (N) 11:26:36 29.400- 29.500
HUMSAT D 28 May 11:18:57 11:22:52 39° 97° (E) 11:26:48 437.325/437.525
POPSAT HIP 1 28 May 11:20:22 11:24:32 59° 70° (ENE) 11:28:43 437.405
QB50P1 28 May 11:20:43 11:24:53 60° 70° (ENE) 11:29:04 145.935-145.965
CUBEBUG 2 28 May 11:22:41 11:26:28 35° 295° (WNW) 11:30:15 437.445
QB50P2 28 May 11:23:10 11:27:22 66° 71° (ENE) 11:31:34 145.880/145.840
POLYITAN 1 28 May 11:25:38 11:29:50 67° 71° (ENE) 11:34:03 437.675
JAS-2 28 May 11:26:52 11:33:33 34° 52° (NE) 11:40:23 435.910
NANOSAT C BR1 28 May 11:38:49 11:43:02 83° 76° (ENE) 11:47:17 145.865
DELFI C3 28 May 11:42:14 11:46:15 66° 289° (WNW) 11:50:16 145.870
UNISAT 6 28 May 11:43:14 11:46:46 24° 268° (W) 11:50:17 437.425
UWE-3 28 May 11:50:25 11:53:58 28° 298° (WNW) 11:57:32 435.000/436.395/437.385
TIGRISAT 28 May 11:50:49 11:54:12 22° 269° (W) 11:57:33 435.000
Oscar 19 28 May 11:51:17 11:54:55 20° 51° (NE) 11:58:34 437.125/150
FUNcube-1 28 May 11:52:55 11:56:45 36° 295° (WNW) 12:00:37 145.935
DANDE 28 May 12:02:55 12:08:13 30° 81° (E) 12:14:32 436.750
CUSAT 1 28 May 12:02:56 12:09:33 52° 92° (E) 12:17:13 437.405
AISAT 28 May 12:03:22 12:06:36 19° 90° (E) 12:09:49 437.250
SEEDS 28 May 12:06:47 12:07:48 11° 311° (NW) 12:08:48 437.485
BEESAT 3 28 May 12:08:53 12:12:12 26° 121° (ESE) 12:15:33 437.485
UKube-1 28 May 12:09:00 12:11:30 15° 87° (E) 12:14:00 .
50 SAT 28 May 12:13:20 12:16:19 22° 93° (E) 12:19:18 437.505
HO-68 28 May 12:15:32 12:21:04 25° 317° (NW) 12:26:37 435.675
DUCHIFAT 1 28 May 12:17:27 12:21:31 47° 260° (W) 12:25:36 145.980
Gurwin Techsat 1B 28 May 12:18:35 12:21:55 17° 47° (NE) 12:25:14 435.225
O/OREOS (USA 219) 28 May 12:24:29 12:28:19 26° 320° (NW) 12:32:09 437.305
AO-85 28 May 12:26:48 12:31:24 32° 17° (NNE) 12:35:41 145.980
ANTELSAT 28 May 12:27:20 12:28:32 11° 276° (W) 12:29:44 437.575/2403.000
BUGSAT 1 28 May 12:33:12 12:37:22 61° 258° (WSW) 12:41:30 437.445
ITAMSAT 1 28 May 12:36:18 12:38:10 12° 41° (NE) 12:40:00 435.822/435.867
Oscar 11 28 May 12:36:45 12:39:34 17° 306° (NW) 12:42:23 145.826/435.025
